Vertical_Velocity
-4 -10 4 9 -4 -4 -6 -3 -3 8 13 -22 0 -1 3 -4 -2 -3 -6 3 1 -9 1 3 3 -2 -1 -2 -2 -1 1 6 -1 3 0 -0 -3 -1 1 -2 0 -3 -1 -1
-9 -8 19 -7 -0 -2 -5 -7 9 5 17 -27 -2 3 1 4 4 -5 -2 2 -3 -11 -4 -4 -1 4 0 -3 -3 2 4 4 5 0 2 4 2 2 -0 -1 -2 -3 -2 -3
-9 16 1 -3 -4 -6 2 -2 8 -14 -2 -6 -5 3 -1 10 0 -2 7 -7 2 -2 -4 -5 0 -1 1 2 -1 8 5 1 -3 -1 -1 -1 0 1 3 4 2 0 -1 -4
-24 7 3 1 2 -3 -6 13 -3 -3 -13 -2 -5 -28 -0 5 9 -1 -1 0 0 -4 -5 -3 -1 -1 0 -3 -1 1 2 -2 -0 0 1 1 2 3 1 1 -0 1 1 1
15 12 1 -14 16 -16 7 8 -6 -1 -6 -7 6 -31 13 1 7 -1 -2 1 0 -4 -2 -1 -5 1 3 -0 -2 0 2 0 1 1 1 0 -1 -1 2 1 1 8 -0 1
-0 -0 -5 3 4 4 -2 3 -2 -4 -0 -26 10 -20 90 8 3 4 -1 4 -1 -0 -3 -3 -3 -2 -5 -3 -3 1 2 0 -1 -0 -2 -2 -2 -3 -2 -2 -3 -1 -6 2
34 5 7 -1 0 3 1 5 -7 -11 -5 -16 2 -44 31 -7 -0 -2 2 1 4 0 -2 -4 -4 -3 -0 2 2 1 -0 -3 -0 -1 -1 -0 -2 1 -1 -1 2 -2 -2 -4
-3 -14 16 34 -3 20 0 1 0 -5 -17 4 1 -43 -2 -1 6 1 -0 1 2 0 0 -2 -4 -6 -2 2 4 5 2 -1 -3 -4 -5 -3 -2 -2 -3 -2 -2 -2 0 2
4 -24 10 5 24 7 24 -31 47 -10 -6 -15 1 -10 -7 5 6 1 -1 4 0 -0 0 -2 -3 -2 2 2 -1 -1 -1 0 -2 1 0 -2 -1 -0 -1 -2 -1 -2 1 -3
-4 -18 9 12 0 -0 -7 22 -10 -5 -22 -13 -13 -23 -13 4 3 -3 1 2 -4 2 6 2 -0 -3 -1 -2 -2 -2 -4 -2 -2 -2 -3 -3 -5 -4 -5 -4 -5 -13 -15 -7
19 -18 11 3 -6 17 8 -7 -6 5 -12 2 -8 -37 5 2 -2 -2 -1 -5 1 1 4 -2 -1 0 -2 -1 1 -0 1 -1 -2 -1 -3 -4 -1 -3 -6 -7 -6 -3 -5 -7
29 -3 -37 -3 4 2 -4 -4 -1 -19 6 -14 -7 -41 -4 1 -3 -4 -2 1 -1 -5 -0 8 4 1 -1 -0 4 2 1 3 5 1 0 -2 -5 -5 -4 -6 -2 0 -1 -3
27 -33 -12 -9 3 8 -22 8 13 13 2 -33 7 -13 13 -4 -6 -2 -4 -4 6 6 1 -2 4 3 0 2 4 0 1 -1 -5 -2 -0 -3 -2 -1 -3 -3 -3 -3 -1 3
8 -6 -13 -13 19 4 -1 2 7 15 -28 45 -24 -9 4 -1 -1 -2 -4 -0 -1 1 -0 4 5 4 3 3 2 -3 -0 0 1 1 -4 -2 -2 1 3 -2 -6 -3 -1 -1
-1 -15 -1 18 1 3 0 4 8 -20 17 -21 47 -3 1 -1 2 -2 -1 2 3 4 3 -0 0 2 -3 -5 -2 -1 -6 -5 -2 0 4 0 -5 -1 -1 -2 -0 3 6 5
-0 -24 -3 -11 6 -1 -9 4 -4 -4 3 -12 6 2 5 -5 -3 1 1 -3 1 1 1 0 2 -0 1 0 1 -1 3 0 -3 -2 0 3 -5 -2 1 3 2 9 4 -3
18 4 5 -35 12 10 -30 3 -1 0 1 1 -11 18 7 4 -0 5 2 -2 -6 -3 -1 6 9 6 1 -2 -4 -2 -1 -2 -4 -5 -8 -6 -8 -7 -7 -3 1 1 16 4
3 12 9 -18 8 -8 -25 8 1 -5 -5 -2 -4 3 9 8 4 4 -1 -1 1 15 19 13 -1 4 2 -2 -5 1 0 -3 -7 -5 -4 -11 -10 -3 -5 -6 -6 -4 -1 9
4 11 6 1 3 -1 -24 -16 5 23 -6 1 3 1 -0 5 2 -2 32 27 21 9 3 -13 8 7 -2 -1 -2 1 4 1 -2 -2 2 -1 -8 -7 2 6 12 12 8 4
2 8 7 1 -3 -15 14 3 6 1 -39 -2 -1 2 18 28 31 38 21 10 11 23 1 -0 -3 -7 -9 -6 -6 -7 -4 -6 -7 -10 -6 -6 -3 -7 -4 -1 -5 2 -2 -8
4 1 -4 4 -5 -16 9 6 12 -15 15 17 11 14 -1 -2 -1 5 4 -1 -1 1 3 0 -5 -3 -0 0 -7 -5 -4 2 -1 -5 -10 -6 4 3 -0 -1 -1 2 -4 -4
12 7 2 2 1 -32 16 7 -6 22 7 3 11 7 0 1 1 -1 -5 -6 -1 -0 -3 -7 -4 -0 2 -2 -3 -1 2 -2 1 -0 3 -4 -2 -1 2 -1 2 4 3 0
-19 6 9 10 -8 -11 3 8 -5 -0 -0 -2 -2 2 3 4 4 -0 -1 -1 -4 -5 -8 -7 -4 -2 0 -4 -5 -3 -2 -2 -4 -4 -0 -1 -3 -1 1 -4 1 -5 -7 -3
3 2 -0 6 3 7 -8 -6 -5 -1 8 3 3 0 0 -3 -5 -1 -0 -0 -2 -5 -6 -4 -3 -5 2 -0 -0 -3 -4 -8 -7 -5 2 -0 -1 -1 -1 -2 -2 0 -1 4
3 7 -1 -13 -5 7 -6 -1 -2 1 1 3 1 0 -0 4 2 1 2 3 -1 -3 -2 -0 -3 -0 -1 -2 -0 -2 -2 -2 -1 -2 -2 -4 -5 -4 -3 -4 -3 -6 4 4
2 2 -1 -5 1 -5 -1 -0 1 2 3 5 2 -1 0 1 1 1 2 -1 0 -3 -0 -1 -3 -2 -0 -3 -6 2 -2 -3 -6 -4 0 -3 -3 -1 -4 -5 -2 -4 -3 7
Height
5811 5811 5819 5829 5824 5823 5824 5826 5828 5833 5833 5829 5830 5826 5831 5830 5829 5832 5832 5827 5821 5817 5820 5816 5814 5813 5813 5812 5815 5815 5817 5818 5818 5816 5817 5817 5818 5819 5820 5819 5818 5817 5816 5815
5800 5804 5814 5814 5816 5816 5816 5819 5821 5824 5825 5816 5821 5820 5822 5823 5823 5825 5823 5818 5810 5814 5812 5810 5809 5808 5806 5807 5810 5811 5813 5813 5814 5814 5814 5815 5814 5815 5815 5814 5813 5812 5812 5810
5793 5800 5799 5803 5806 5808 5810 5810 5814 5813 5812 5809 5808 5806 5813 5816 5815 5818 5816 5805 5806 5806 5803 5802 5801 5802 5802 5803 5806 5807 5808 5808 5809 5810 5809 5809 5808 5809 5809 5808 5808 5807 5806 5804
5783 5787 5789 5795 5796 5798 5801 5806 5803 5803 5798 5800 5803 5788 5798 5806 5806 5808 5803 5799 5798 5795 5794 5794 5795 5796 5797 5799 5800 5801 5801 5803 5804 5804 5804 5804 5803 5803 5803 5802 5802 5801 5800 5798
5776 5779 5781 5783 5790 5790 5792 5793 5791 5790 5792 5788 5788 5787 5787 5797 5794 5796 5791 5791 5789 5787 5787 5788 5789 5790 5791 5792 5794 5795 5796 5796 5797 5798 5798 5798 5797 5797 5796 5795 5795 5792 5790 5789
5763 5764 5771 5776 5778 5780 5783 5781 5784 5784 5781 5770 5778 5783 5775 5783 5786 5786 5783 5783 5782 5780 5780 5781 5782 5783 5785 5786 5787 5788 5789 5789 5789 5789 5789 5789 5788 5788 5787 5785 5785 5783 5782 5781
5756 5759 5761 5766 5769 5771 5771 5774 5772 5771 5765 5762 5769 5767 5765 5768 5774 5776 5775 5774 5773 5771 5772 5775 5776 5778 5779 5780 5780 5781 5781 5781 5781 5781 5780 5780 5778 5777 5776 5775 5773 5772 5770 5768
5741 5745 5751 5756 5761 5762 5763 5763 5761 5754 5758 5758 5755 5747 5754 5761 5763 5765 5765 5765 5765 5764 5766 5767 5769 5770 5771 5771 5771 5772 5772 5771 5771 5770 5770 5768 5767 5766 5764 5763 5760 5758 5756 5754
5730 5734 5740 5746 5750 5748 5751 5745 5755 5749 5746 5742 5740 5741 5747 5749 5753 5756 5756 5754 5754 5755 5756 5758 5760 5761 5761 5761 5761 5761 5761 5760 5759 5759 5757 5755 5754 5754 5753 5751 5749 5747 5745 5742
5718 5722 5730 5732 5731 5734 5732 5740 5734 5732 5730 5730 5730 5731 5734 5739 5741 5742 5743 5743 5744 5745 5746 5747 5747 5746 5747 5748 5750 5750 5750 5750 5748 5746 5744 5743 5742 5740 5738 5736 5735 5734 5731 5728
5706 5709 5714 5713 5714 5719 5723 5723 5721 5721 5718 5716 5718 5720 5727 5728 5730 5731 5732 5731 5733 5735 5735 5735 5735 5736 5737 5737 5737 5739 5740 5738 5736 5735 5734 5734 5733 5731 5729 5726 5722 5718 5714 5709
5694 5690 5694 5692 5696 5699 5704 5705 5707 5702 5704 5709 5710 5711 5715 5715 5719 5719 5720 5720 5721 5721 5724 5726 5725 5724 5724 5726 5728 5729 5728 5727 5726 5725 5722 5719 5716 5713 5710 5707 5702 5699 5696 5692
5677 5670 5677 5678 5682 5682 5684 5693 5695 5694 5695 5697 5696 5701 5707 5706 5705 5707 5709 5710 5712 5713 5713 5712 5712 5712 5715 5715 5715 5713 5710 5709 5708 5705 5703 5702 5700 5697 5693 5690 5686 5682 5678 5674
5655 5656 5660 5664 5671 5675 5677 5679 5683 5683 5682 5687 5688 5690 5693 5694 5694 5695 5696 5698 5699 5699 5699 5700 5700 5698 5698 5698 5695 5694 5693 5691 5688 5685 5684 5681 5680 5677 5675 5673 5668 5664 5661 5658
5638 5644 5649 5655 5656 5659 5665 5668 5667 5666 5676 5672 5681 5678 5679 5679 5680 5681 5682 5684 5684 5686 5686 5686 5685 5686 5684 5682 5681 5678 5676 5674 5671 5668 5666 5664 5661 5657 5652 5649 5648 5645 5641 5638
5627 5629 5637 5640 5645 5644 5648 5655 5656 5657 5658 5658 5662 5662 5663 5663 5665 5669 5670 5670 5670 5671 5672 5671 5669 5670 5670 5668 5666 5662 5659 5656 5654 5652 5649 5647 5645 5640 5637 5632 5626 5624 5622 5620
5618 5620 5622 5625 5629 5629 5627 5643 5642 5643 5646 5647 5647 5651 5651 5651 5654 5656 5655 5654 5656 5658 5658 5657 5656 5654 5651 5648 5645 5643 5640 5637 5634 5631 5627 5622 5621 5618 5615 5611 5609 5606 5606 5602
5602 5607 5608 5609 5613 5605 5619 5623 5626 5627 5630 5633 5636 5636 5639 5642 5641 5641 5642 5643 5641 5642 5640 5638 5635 5633 5632 5630 5628 5626 5623 5620 5616 5612 5607 5603 5600 5597 5593 5589 5587 5587 5588 5586
5587 5592 5592 5593 5593 5594 5602 5608 5610 5613 5620 5623 5620 5622 5624 5624 5626 5628 5629 5625 5622 5620 5620 5617 5615 5614 5614 5612 5610 5610 5608 5602 5597 5593 5586 5579 5574 5574 5572 5571 5568 5563 5562 5565
5571 5575 5577 5578 5578 5580 5594 5596 5596 5598 5599 5611 5611 5611 5611 5610 5610 5615 5611 5606 5606 5605 5604 5601 5601 5600 5596 5592 5590 5589 5584 5577 5571 5566 5564 5559 5551 5546 5546 5544 5544 5543 5540 5543
5556 5560 5562 5564 5564 5572 5583 5583 5584 5584 5601 5600 5597 5597 5596 5597 5599 5600 5596 5595 5592 5589 5587 5585 5583 5581 5577 5572 5567 5564 5560 5556 5548 5542 5538 5536 5531 5523 5519 5518 5517 5518 5521 5524
5546 5547 5550 5551 5553 5560 5571 5568 5570 5579 5581 5582 5579 5579 5581 5581 5582 5580 5578 5576 5573 5571 5567 5566 5565 5561 5555 5548 5542 5541 5538 5532 5527 5521 5516 5509 5502 5498 5492 5489 5488 5488 5493 5500
5532 5537 5540 5541 5544 5548 5554 5555 5557 5561 5562 5562 5563 5564 5565 5565 5563 5560 5558 5555 5552 5550 5548 5545 5542 5541 5537 5530 5523 5520 5516 5509 5504 5498 5491 5483 5476 5469 5461 5457 5455 5453 5458 5469
5517 5521 5522 5526 5532 5535 5537 5540 5542 5546 5547 5548 5548 5548 5549 5549 5547 5545 5542 5539 5535 5532 5529 5525 5523 5521 5520 5513 5506 5497 5491 5484 5478 5472 5468 5460 5452 5448 5443 5437 5434 5432 5433 5439
5504 5505 5508 5509 5515 5519 5520 5524 5528 5530 5530 5530 5531 5531 5530 5530 5527 5525 5522 5519 5515 5511 5509 5506 5502 5500 5498 5492 5487 5478 5468 5461 5456 5451 5448 5444 5439 5435 5429 5422 5414 5410 5412 5416
5489 5492 5492 5495 5499 5501 5504 5504 5508 5511 5512 5513 5513 5513 5511 5510 5508 5505 5501 5498 5495 5492 5489 5484 5481 5480 5475 5469 5466 5459 5449 5443 5441 5440 5435 5430 5425 5421 5415 5407 5400 5396 5396 5400